Regional Weather Roundup
Issued by NWS

Home | Current Version | Previous Version | Text Only | Print | Product List | Glossary Off
Versions: 1 2 3 4 5 6 7 8 9 10 11 12 13 14 15 16 17 18 19 20 21 22 23 24 25 26 27 28 29 30 31 32 33 34 35 36 37 38 39 40 41 42 43 44 45 46 47 48 49 50

023
ASUS45 KBOU 222107
RWRCO

WEATHER ROUNDUP FOR COLORADO
NATIONAL WEATHER SERVICE DENVER/BOULDER CO
300 PM MDT FRI JUL 22 2016

NOTE: "FAIR" INDICATES FEW OR NO CLOUDS BELOW 12000 FEET WITH NO
SIGNIFICANT WEATHER AND/OR OBSTRUCTIONS TO VISIBILITY.

COZ001>005-013-030-031-222200-
...NORTHWEST COLORADO...

CITY           SKY/WX    TMP DP  RH WIND       PRES   REMARKS
CRAIG          FAIR      89  35  14 SW6       30.26F
HAYDEN         FAIR      84  39  20 N6        30.29F
MEEKER         FAIR      85  45  24 VRB3      30.29F
MOUNT WERNER   NOT AVBL
STEAMBOAT SPGS FAIR      82  44  26 SE6       30.32F
WALDEN         FAIR      79  37  22 SE5       30.43F
$$

COZ006>008-011-222200-
...WEST CENTRAL VALLEYS...

CITY           SKY/WX    TMP DP  RH WIND       PRES   REMARKS
GRAND JUNCTION FAIR      89  51  27 SE8       30.18F
MONTROSE       FAIR      84  51  31 SW15G23   30.30R
EAGLE          MOSUNNY   86  45  23 S18       30.32F
RIFLE          FAIR      88  48  25 SE12      30.22F
DELTA          FAIR      93  49  22 S8        30.23S
NUCLA          FAIR      86  45  23 N5        30.32F
$$

COZ017>023-064>068-222200-
...SOUTHWEST COLORADO...

CITY           SKY/WX    TMP DP  RH WIND       PRES   REMARKS
DURANGO        FAIR      88  46  23 NW9       30.33F
CORTEZ         FAIR      92  48  22 W7        30.27F
PAGOSA SPRINGS FAIR      85  34  16 SW9       30.42F
TELLURIDE      CLOUDY    68  50  51 E5        30.59F
WOLF CREEK PAS PTSUNNY   61  41  48 SW9G25    30.81F
$$

COZ009-010-012-014-032>034-037-058>063-222200-
...CENTRAL COLORADO...

CITY           SKY/WX    TMP DP  RH WIND       PRES   REMARKS
ASPEN          PTSUNNY   74  47  38 W12       30.44S
BUENA VISTA    FAIR      78  41  26 SE10      30.43S
COPPER MTN     FAIR      64  39  39 NW7G17    30.78F
BERTHOUD PASS  PTSUNNY   54  41  62 N14       30.81F THUNDER
COTTONWOOD PAS RAIN      72  45  37 E8        30.60F
GUNNISON       PTSUNNY   64  48  55 NW10G16   30.51R THUNDER
KREMMLING      LGT RAIN  72  57  60 NE6       30.40F
LEADVILLE      PTSUNNY   71  37  28 NW8       30.58F
MONARCH PASS   FAIR      64  37  36 MISG      30.88F
SALIDA         FAIR      76  51  41 E9        30.47F
SUNLIGHT       FAIR      66  46  48 CALM      30.71F
WILKERSON PASS PTSUNNY   66  37  34 SW3       30.74F
$$

COZ069>075-222200-
...SAN LUIS VALLEY/SANGRE DE CRISTO MOUNTAINS...

CITY           SKY/WX    TMP DP  RH WIND       PRES   REMARKS
ALAMOSA        FAIR      85  44  23 VRB6      30.37F
LA VETA PASS   FAIR      81  36  19 S8G22     30.62F
SAGUACHE       PTSUNNY   70  50  49 N13       30.44F
$$

COZ035-036-038>040-222200-
...NORTHERN COLORADO FRONT RANGE...

CITY           SKY/WX    TMP DP  RH WIND       PRES   REMARKS
DENVER INTL AP FAIR      93  44  18 SW12      30.16F
DMNS CITY PARK   N/A     86  51  30 W5        30.15F
AURORA         PTSUNNY   90  46  21 W9        30.19F
FRONT RANGE AP PTSUNNY   97  45  16 S7        30.18F
ERIE MUNI ARPT FAIR      91  48  23 SW6       30.14F
BOULDER MUN AP FAIR      95  46  18 SE10      30.15F
CENTENNIAL     TSTM      85  47  26 NW12G22   30.21F
BROOMFIELD     PTSUNNY   90  50  25 S9        30.19F
LONGMONT       FAIR      99  45  15 E5        30.14F
$$

COZ041-046-047-076>085-087-088-222200-
...PIKES PEAK/PALMER DIVIDE AND SOUTHERN FOOTHILLS...

CITY           SKY/WX    TMP DP  RH WIND       PRES   REMARKS
COLO. SPRINGS  FAIR      93  43  17 SE8       30.23F THUNDER
A. F. ACADEMY  MOSUNNY   88  45  22 VRB2      30.24F
SCHRIEVER AFB  NOT AVBL
ELLICOTT       FAIR       0  32 100 SW13G22   30.21F WCI -18
FALCON         FAIR      91  42  18 E8        30.30F
FORT CARSON    NOT AVBL
LIMON          FAIR      95  46  18 VRB7      30.16F
MONUMENT HILL  FAIR      86  46  25 S3        30.32F
TRINIDAD       NOT AVBL
$$

COZ042>045-048>051-090-091-222200-
...NORTHEAST COLORADO...

CITY           SKY/WX    TMP DP  RH WIND       PRES   REMARKS
GREELEY ARPT   FAIR      99  48  18 S13       30.11F
AKRON          FAIR      94  55  26 E7        30.12F
BURLINGTON     FAIR      96  51  21 CALM      30.09F
WRAY           FAIR     100  54  20 S9        30.04F
STERLING       FAIR      97  61  30 S8        30.04F
HOLYOKE        FAIR      99  68  36 W9        30.05F
FORT MORGAN    FAIR      98  45  16 SE8       30.10F
$$

COZ086-089-092>099-222200-
...SOUTHEAST COLORADO...

CITY           SKY/WX    TMP DP  RH WIND       PRES   REMARKS
PUEBLO         FAIR     103  45  14 VRB3      30.08F
LA JUNTA       FAIR     101  48  16 SE6       30.06F
LAMAR          FAIR     101  55  21 MISG      30.02F
SPRINGFIELD      N/A     96  49  20 SE5       30.08F
$$




USA.gov is the U.S. government's official web portal to all federal, state and local government web resources and services.